Temp
68 72 75 75 74 73 74 74 73 73 74 73 73 73 74 73 73 73 73 73 73 72 72 73 73 74 73 73 73 72 72 72 72 72 72 72 74 75 75 75 75 77 76
71 72 75 74 75 74 73 73 74 73 72 73 73 73 73 72 72 72 72 72 72 72 71 73 72 73 72 72 71 72 70 71 71 71 71 70 73 74 74 74 73 74 75
70 72 75 74 74 73 72 73 72 72 72 72 73 72 73 72 72 72 71 71 72 72 72 72 72 72 72 71 71 71 70 70 69 68 70 73 72 74 73 72 73 74 73
71 72 74 74 73 73 72 72 71 71 71 71 72 72 72 71 71 71 71 72 72 71 72 71 71 71 71 70 70 69 69 68 68 67 69 71 69 73 73 72 73 72 72
69 71 73 73 72 72 71 71 71 70 70 70 71 72 71 72 71 70 71 71 71 70 71 71 70 70 70 69 68 68 68 67 66 67 68 68 68 72 72 72 72 72 72
69 71 72 72 73 71 71 70 70 69 69 69 70 70 70 70 71 70 70 70 70 70 70 71 71 70 70 68 68 68 67 66 65 67 68 69 72 72 71 71 70 71 71
68 70 71 72 72 71 71 70 69 68 68 68 69 69 69 69 69 69 69 69 69 70 70 70 70 70 69 68 67 67 66 64 65 66 67 68 70 70 70 70 70 70 70
68 68 70 72 72 71 71 69 69 68 67 67 68 68 68 68 67 68 67 68 69 69 69 69 69 69 68 67 66 66 65 63 65 65 66 68 69 69 69 69 69 70 70
67 67 68 69 71 71 70 69 68 67 67 66 67 67 67 66 66 66 66 68 68 69 69 69 68 68 68 67 66 65 64 62 64 65 66 63 68 69 69 69 69 69 69
65 66 67 67 68 68 67 69 68 67 67 66 66 66 66 62 64 64 64 67 68 67 68 68 66 66 66 66 65 63 61 61 64 64 66 68 68 69 68 68 68 68 68
61 63 64 65 66 66 67 67 67 67 66 65 64 64 61 63 62 62 62 65 66 65 65 65 65 64 62 63 63 62 59 63 63 64 65 67 68 68 68 68 67 68 68
60 61 62 63 64 64 66 64 64 64 64 63 62 62 63 62 62 63 60 61 61 62 61 62 62 60 60 63 63 60 63 62 63 63 64 65 66 68 68 67 67 67 68
61 61 61 61 62 62 64 63 63 62 62 62 60 60 60 61 61 61 61 61 60 59 60 60 60 61 61 62 62 63 62 63 64 64 62 64 65 66 67 67 67 67 67
59 61 62 61 60 61 62 62 62 61 60 60 60 58 59 59 60 60 60 59 59 59 59 59 60 60 61 60 61 62 62 62 63 63 63 62 64 65 66 67 67 66 67
59 60 61 60 60 61 59 60 60 60 61 60 59 58 58 58 58 59 59 59 59 59 59 59 59 59 60 61 61 61 61 62 62 63 63 58 62 63 64 65 66 66 66
60 60 62 60 60 60 59 59 60 60 60 59 59 59 58 58 59 58 58 58 58 58 59 59 58 58 59 59 60 60 60 61 61 60 62 62 59 61 62 64 64 65 65
61 62 60 60 60 58 58 59 58 58 58 58 58 59 58 58 58 59 58 57 58 58 56 58 58 58 58 59 59 59 59 60 60 61 60 61 61 57 59 61 63 63 64
62 59 61 61 61 59 58 58 58 59 57 58 58 58 58 58 58 57 57 57 58 57 57 57 57 57 57 57 58 59 59 59 60 60 59 60 60 61 59 57 60 62 62
61 61 60 60 61 60 59 58 58 58 57 58 58 58 58 57 58 57 57 58 57 56 56 56 56 55 56 57 57 59 59 58 59 59 59 58 58 59 60 58 58 59 60
60 61 61 60 60 59 58 57 56 56 56 57 57 57 57 57 57 57 56 56 56 55 55 54 54 54 54 54 54 56 58 58 56 56 58 59 58 57 58 58 58 59 57
59 58 59 59 60 57 55 55 55 56 57 56 56 57 57 57 56 56 56 56 55 54 56 55 54 53 54 54 53 57 58 56 56 56 57 57 57 58 58 58 58 59 59
62 59 58 58 59 57 58 56 58 57 57 59 57 58 57 57 57 56 56 56 56 54 53 53 52 53 53 53 54 51 52 57 58 56 55 55 57 57 57 58 58 58 58
59 60 59 59 59 58 58 56 54 54 53 53 54 55 55 56 56 55 56 56 56 55 54 54 52 51 52 52 53 54 49 50 50 55 54 54 54 55 57 57 57 58 58
61 59 60 60 59 59 57 56 55 57 57 60 61 58 57 56 57 56 56 56 56 55 54 54 54 53 51 51 50 51 52 53 50 49 55 54 53 54 55 56 57 58 58
61 60 60 58 58 58 56 56 56 55 58 60 56 55 56 56 56 56 56 57 56 55 55 55 54 52 52 53 51 50 49 49 50 48 47 52 53 54 56 56 57 57 57
61 58 57 57 58 57 55 54 54 54 56 55 55 54 56 56 56 55 55 55 56 55 55 54 54 54 53 52 52 52 52 50 48 46 45 48 48 53 53 55 55 56 57
MSLP
1026.14 1026.17 1026.07 1026.34 1026.47 1026.79 1026.85 1026.90 1027.07 1026.87 1026.80 1026.71 1026.59 1026.46 1026.28 1026.24 1026.13 1025.91 1025.92 1025.77 1025.68 1025.67 1025.38 1024.99 1024.82 1024.54 1024.43 1024.36 1024.35 1024.29 1024.11 1023.89 1023.69 1023.44 1023.23 1022.94 1022.55 1022.20 1021.84 1021.66 1021.37 1021.16 1020.99
1026.01 1026.27 1026.18 1026.51 1026.56 1026.80 1027.13 1027.11 1026.93 1027.16 1027.13 1026.97 1026.88 1026.76 1026.70 1026.66 1026.61 1026.56 1026.46 1026.21 1026.02 1026.05 1025.86 1025.36 1025.26 1025.06 1024.95 1024.93 1024.85 1024.65 1024.64 1024.46 1024.25 1023.89 1023.59 1023.41 1022.94 1022.57 1022.18 1022.03 1022.00 1021.91 1021.70
1026.06 1026.31 1026.31 1026.61 1026.80 1027.01 1027.31 1027.19 1027.35 1027.48 1027.40 1027.30 1027.07 1027.11 1027.01 1027.02 1026.93 1026.89 1026.71 1026.59 1026.31 1026.21 1026.08 1025.89 1025.81 1025.54 1025.49 1025.45 1025.34 1024.97 1024.98 1024.90 1024.75 1024.44 1023.99 1023.59 1023.31 1022.90 1022.89 1022.83 1022.52 1022.47 1022.30
1026.26 1026.42 1026.51 1026.60 1026.92 1027.12 1027.45 1027.43 1027.65 1027.80 1027.61 1027.62 1027.43 1027.42 1027.42 1027.45 1027.31 1027.20 1027.11 1026.87 1026.68 1026.61 1026.43 1026.37 1026.25 1026.05 1025.94 1025.88 1025.86 1025.70 1025.59 1025.49 1025.30 1024.97 1024.57 1024.20 1023.89 1023.42 1023.36 1023.26 1023.09 1023.04 1022.84
1026.53 1026.68 1026.71 1026.83 1027.13 1027.29 1027.49 1027.64 1027.77 1027.93 1027.91 1027.92 1027.67 1027.61 1027.56 1027.46 1027.49 1027.48 1027.28 1027.20 1027.11 1027.11 1026.87 1026.72 1026.63 1026.50 1026.41 1026.52 1026.43 1026.30 1026.08 1025.96 1025.73 1025.45 1025.06 1024.63 1024.34 1023.93 1023.84 1023.77 1023.65 1023.41 1023.28
1026.73 1026.83 1026.93 1027.08 1027.20 1027.52 1027.58 1027.83 1027.99 1028.10 1028.21 1028.17 1027.93 1027.97 1027.83 1027.86 1027.70 1027.68 1027.66 1027.67 1027.60 1027.37 1027.35 1026.89 1026.60 1026.76 1026.68 1026.77 1026.76 1026.75 1026.55 1026.45 1026.28 1025.91 1025.56 1025.20 1024.54 1024.38 1024.37 1024.25 1024.15 1023.99 1023.68
1026.86 1027.02 1027.17 1027.20 1027.44 1027.59 1027.75 1028.00 1028.15 1028.29 1028.42 1028.39 1028.17 1028.27 1028.15 1028.21 1028.18 1028.11 1028.01 1027.92 1027.77 1027.55 1027.33 1027.17 1027.08 1027.01 1026.96 1026.99 1027.08 1027.07 1026.94 1026.89 1026.70 1026.34 1025.88 1025.77 1025.19 1024.96 1024.85 1024.73 1024.45 1024.38 1024.05
1026.92 1027.30 1027.37 1027.35 1027.51 1027.68 1027.84 1028.14 1028.29 1028.45 1028.59 1028.61 1028.50 1028.54 1028.53 1028.57 1028.56 1028.42 1028.38 1028.22 1028.04 1027.76 1027.61 1027.54 1027.45 1027.30 1027.31 1027.33 1027.39 1027.34 1027.23 1027.24 1026.99 1026.82 1026.48 1026.05 1025.53 1025.29 1025.15 1025.04 1024.74 1024.59 1024.25
1027.26 1027.44 1027.52 1027.67 1027.64 1027.72 1027.87 1028.20 1028.36 1028.56 1028.72 1028.82 1028.82 1028.89 1028.89 1028.98 1028.93 1028.83 1028.71 1028.42 1028.23 1027.95 1027.91 1027.84 1027.82 1027.65 1027.54 1027.66 1027.70 1027.77 1027.75 1027.73 1027.49 1027.18 1026.80 1026.56 1026.02 1025.65 1025.41 1025.29 1025.14 1024.88 1024.63
1027.42 1027.46 1027.68 1027.88 1027.91 1027.99 1028.14 1028.21 1028.44 1028.62 1028.74 1028.80 1028.87 1029.00 1029.02 1029.40 1029.34 1029.22 1029.16 1028.71 1028.41 1028.28 1028.12 1028.04 1028.12 1028.09 1027.96 1027.98 1028.10 1028.23 1028.18 1027.95 1027.60 1027.42 1027.07 1026.44 1026.08 1025.86 1025.75 1025.58 1025.47 1025.25 1025.12
1027.57 1027.62 1027.86 1027.95 1028.01 1028.19 1028.24 1028.34 1028.46 1028.61 1028.79 1028.97 1029.22 1029.27 1029.41 1029.44 1029.51 1029.49 1029.35 1028.94 1028.74 1028.70 1028.56 1028.47 1028.52 1028.56 1028.65 1028.43 1028.33 1028.38 1028.44 1028.27 1027.99 1027.74 1027.37 1026.71 1026.16 1026.02 1025.89 1025.88 1025.81 1025.52 1025.32
1027.25 1027.59 1027.78 1027.94 1028.08 1028.20 1028.29 1028.53 1028.71 1028.88 1029.12 1029.27 1029.30 1029.36 1029.42 1029.45 1029.44 1029.31 1029.34 1029.22 1029.21 1029.04 1029.07 1029.00 1028.94 1029.00 1028.93 1028.81 1028.75 1028.77 1028.58 1028.53 1028.31 1028.10 1027.72 1027.13 1026.63 1026.12 1026.09 1026.01 1025.94 1025.86 1025.56
1026.88 1027.44 1027.60 1027.89 1028.05 1028.19 1028.19 1028.45 1028.70 1028.96 1029.12 1029.31 1029.37 1029.44 1029.58 1029.64 1029.62 1029.44 1029.38 1029.38 1029.46 1029.46 1029.39 1029.38 1029.27 1029.15 1028.99 1028.88 1028.85 1028.77 1028.74 1028.60 1028.44 1028.21 1028.02 1027.48 1027.14 1026.72 1026.28 1026.17 1026.00 1025.84 1025.62
1026.75 1027.03 1027.29 1027.68 1027.91 1028.06 1028.18 1028.31 1028.47 1028.84 1029.10 1029.23 1029.31 1029.53 1029.59 1029.56 1029.49 1029.50 1029.51 1029.67 1029.63 1029.61 1029.47 1029.39 1029.21 1029.16 1029.05 1028.99 1028.86 1028.71 1028.61 1028.50 1028.38 1028.28 1028.12 1027.75 1027.40 1027.08 1026.73 1026.30 1026.10 1025.98 1025.75
1026.33 1026.66 1026.95 1027.33 1027.60 1027.74 1028.08 1028.15 1028.35 1028.62 1028.73 1028.99 1029.20 1029.34 1029.47 1029.53 1029.46 1029.54 1029.56 1029.55 1029.60 1029.59 1029.47 1029.26 1029.26 1029.12 1028.95 1028.88 1028.78 1028.65 1028.47 1028.40 1028.35 1028.28 1028.19 1028.15 1027.70 1027.40 1027.08 1026.74 1026.41 1026.24 1025.92
1025.78 1026.04 1026.39 1026.82 1027.16 1027.53 1027.76 1027.93 1028.02 1028.38 1028.58 1028.89 1028.94 1029.00 1029.18 1029.25 1029.33 1029.34 1029.44 1029.50 1029.46 1029.46 1029.42 1029.47 1029.43 1029.31 1029.08 1028.91 1028.53 1028.44 1028.31 1028.27 1028.23 1028.19 1028.10 1028.05 1028.02 1027.74 1027.44 1027.02 1026.74 1026.54 1026.24
1025.06 1025.55 1025.93 1026.31 1026.74 1027.23 1027.41 1027.60 1027.86 1028.01 1028.39 1028.54 1028.61 1028.76 1028.91 1029.05 1029.16 1029.15 1029.22 1029.20 1029.14 1029.28 1029.45 1029.42 1029.17 1029.06 1028.82 1028.70 1028.46 1028.32 1028.17 1027.99 1027.96 1027.90 1027.94 1027.88 1027.80 1027.84 1027.63 1027.31 1026.92 1026.64 1026.41
1024.71 1025.11 1025.43 1025.79 1026.15 1026.65 1026.95 1027.16 1027.40 1027.60 1027.98 1028.14 1028.29 1028.37 1028.47 1028.57 1028.72 1028.78 1028.77 1028.71 1028.77 1029.04 1029.18 1029.05 1028.92 1028.76 1028.56 1028.35 1028.09 1027.93 1027.86 1027.73 1027.56 1027.56 1027.64 1027.64 1027.63 1027.55 1027.45 1027.34 1027.03 1026.69 1026.48
1024.12 1024.63 1025.02 1025.44 1025.63 1025.94 1026.41 1026.84 1027.08 1027.31 1027.53 1027.59 1027.80 1027.80 1027.90 1028.12 1028.25 1028.37 1028.32 1028.18 1028.43 1028.54 1028.66 1028.70 1028.69 1028.71 1028.33 1028.12 1027.93 1027.47 1027.27 1027.19 1027.03 1026.94 1026.90 1027.10 1027.21 1027.25 1027.22 1027.23 1027.11 1026.83 1026.59
1023.64 1024.10 1024.51 1024.89 1025.17 1025.63 1026.16 1026.60 1026.89 1027.05 1027.01 1027.14 1027.21 1027.25 1027.45 1027.57 1027.76 1027.88 1027.87 1027.91 1028.16 1028.24 1028.24 1028.36 1028.35 1028.39 1028.31 1028.04 1027.76 1027.19 1026.67 1026.57 1026.72 1026.70 1026.46 1026.54 1026.67 1026.84 1026.92 1026.95 1026.85 1026.65 1026.54
1023.11 1023.60 1023.89 1024.30 1024.51 1025.27 1025.87 1026.18 1026.39 1026.20 1026.19 1026.30 1026.32 1026.44 1026.66 1026.83 1027.00 1027.22 1027.29 1027.38 1027.67 1027.74 1027.63 1027.90 1028.05 1028.13 1027.97 1028.07 1027.56 1026.57 1026.16 1026.06 1025.90 1026.04 1026.31 1026.29 1026.27 1026.31 1026.42 1026.45 1026.45 1026.39 1026.23
1022.09 1022.54 1023.10 1023.34 1023.72 1024.18 1024.62 1024.88 1025.09 1025.21 1025.23 1025.13 1025.32 1025.44 1025.68 1025.87 1026.09 1026.34 1026.53 1026.69 1026.91 1027.14 1027.30 1027.47 1027.69 1027.68 1027.71 1027.71 1027.27 1027.15 1026.15 1025.70 1025.67 1025.61 1025.73 1025.67 1025.65 1025.88 1025.86 1025.85 1025.80 1025.75 1025.70
1021.29 1021.49 1021.96 1022.31 1022.71 1023.13 1023.53 1024.33 1024.97 1025.31 1025.37 1025.15 1024.89 1024.72 1024.71 1025.07 1025.30 1025.59 1025.64 1025.77 1026.02 1026.36 1026.39 1026.61 1026.93 1027.19 1027.03 1027.22 1027.24 1026.91 1026.47 1025.78 1025.63 1025.12 1025.15 1025.28 1025.36 1025.42 1025.41 1025.45 1025.40 1025.35 1025.24
1020.13 1020.88 1021.30 1021.69 1022.04 1022.46 1023.02 1023.53 1023.89 1023.97 1023.99 1023.29 1023.46 1023.57 1023.87 1024.25 1024.42 1024.61 1024.77 1024.99 1025.13 1025.38 1025.41 1025.54 1026.03 1026.37 1026.81 1026.56 1026.89 1026.73 1026.45 1026.26 1025.92 1025.12 1024.95 1024.88 1024.90 1024.79 1024.70 1024.75 1024.80 1024.71 1024.69
1019.69 1020.09 1020.62 1021.12 1021.53 1021.90 1022.42 1022.84 1023.20 1023.25 1022.94 1022.93 1023.12 1023.14 1023.25 1023.42 1023.57 1023.76 1023.94 1024.01 1024.07 1024.23 1024.31 1024.64 1025.07 1025.46 1025.61 1025.65 1025.81 1026.07 1026.28 1026.26 1026.24 1026.17 1024.78 1024.41 1024.57 1024.39 1024.23 1024.01 1023.88 1023.93 1023.90
1019.34 1019.80 1020.21 1020.54 1020.72 1021.36 1021.84 1022.15 1022.32 1022.31 1022.47 1022.61 1022.50 1022.55 1022.39 1022.52 1022.73 1022.82 1022.95 1023.07 1023.12 1023.33 1023.49 1023.71 1024.01 1024.23 1024.38 1024.62 1024.89 1025.11 1025.08 1025.03 1025.10 1025.32 1025.13 1024.47 1024.30 1023.66 1023.61 1023.54 1023.35 1023.09 1023.03
Wind_Speed
4 4 7 8 4 5 9 9 7 6 9 9 11 12 12 12 13 15 14 14 13 15 15 14 16 16 16 16 15 16 17 16 18 18 17 18 17 17 19 16 18 17 20
6 4 7 6 7 5 6 5 7 10 8 9 10 12 11 13 13 13 14 14 15 14 14 16 15 15 16 16 13 15 16 15 17 18 18 15 15 15 18 17 19 18 19
7 3 5 5 8 6 5 5 9 9 6 9 9 11 11 11 13 12 14 13 14 14 14 15 14 15 14 15 15 15 14 16 18 17 17 11 10 16 20 20 19 19 18
6 4 6 6 5 7 4 7 7 6 8 7 9 10 11 11 12 12 12 12 13 14 13 14 14 14 14 16 15 14 15 16 17 17 9 12 9 18 19 19 19 18 17
6 5 5 6 4 6 2 6 7 6 8 6 8 9 11 11 11 11 11 12 13 12 13 13 12 12 14 15 15 14 13 16 18 13 11 11 8 15 18 18 15 16 16
6 5 3 6 5 5 5 4 5 6 6 5 8 8 9 10 11 11 11 12 11 10 10 11 12 14 13 14 15 15 14 15 14 12 11 12 11 15 15 15 14 15 16
7 5 2 6 6 4 6 4 4 5 5 5 7 6 9 9 9 10 10 10 10 10 10 12 12 12 13 14 15 15 15 14 10 10 11 10 10 13 12 12 13 13 11
9 5 3 6 6 4 5 3 4 4 4 3 4 5 6 8 8 8 8 9 9 10 11 11 12 12 13 12 13 14 15 14 10 10 10 8 12 13 13 13 13 13 14
6 5 4 2 2 6 5 4 3 3 2 2 2 3 5 8 9 7 7 7 7 9 9 10 11 11 11 11 12 13 12 12 8 7 8 5 12 12 13 13 14 13 15
5 5 5 3 4 4 4 5 3 2 1 2 2 3 5 6 7 8 8 9 9 9 8 8 9 9 9 10 10 10 10 9 8 7 6 5 11 13 13 13 13 13 12
5 5 5 5 4 4 3 2 2 2 1 3 5 5 4 2 3 3 6 8 9 8 8 8 8 7 8 8 9 9 6 3 5 5 4 10 10 9 11 11 11 11 12
10 8 6 6 5 4 3 3 3 2 2 2 1 3 3 3 3 5 5 7 7 7 7 7 6 7 5 3 3 4 3 3 3 3 4 9 11 9 10 8 8 10 10
11 8 9 7 6 6 5 3 2 2 2 1 2 1 2 2 3 3 3 3 3 5 3 4 4 3 4 3 1 1 1 1 2 2 5 8 8 9 7 9 8 7 8
12 12 10 9 8 8 4 4 4 3 3 3 3 3 2 1 2 2 2 3 3 3 4 3 3 3 3 3 3 2 2 1 1 1 3 8 7 8 9 9 7 7 8
13 13 13 10 10 8 8 5 5 5 4 4 3 4 3 3 3 2 2 2 2 2 2 3 3 4 4 4 4 4 4 4 3 2 2 4 6 7 8 8 9 9 9
14 14 13 13 11 9 9 8 6 5 5 4 4 5 6 4 4 4 3 3 3 3 2 2 3 4 4 4 5 4 5 5 5 5 3 3 5 6 7 7 6 8 8
14 12 13 13 11 11 11 9 7 6 5 5 5 6 7 6 5 5 4 4 4 3 4 3 3 3 3 3 5 5 4 5 5 6 4 4 3 4 5 6 7 7 8
11 13 12 10 11 12 11 9 7 7 6 6 6 6 8 8 8 6 5 5 4 3 3 3 3 4 4 3 4 4 4 5 6 6 5 5 4 4 4 6 8 8 8
13 12 12 12 13 13 11 8 8 8 7 7 6 7 9 9 9 7 6 6 5 4 4 4 3 3 4 4 5 6 6 6 7 5 7 7 6 5 4 5 9 9 10
11 11 11 10 12 11 6 6 6 6 7 7 7 8 9 8 9 8 7 7 5 5 4 4 5 3 4 5 6 8 7 5 5 6 7 6 6 6 5 5 4 4 9
11 11 12 12 12 8 5 5 6 7 6 8 8 11 11 10 11 10 8 8 7 7 7 5 4 5 3 2 5 4 4 4 5 4 4 5 6 6 6 5 4 3 4
12 13 12 14 12 11 9 5 4 3 5 6 5 10 12 12 12 11 10 9 9 7 8 8 7 3 3 3 3 2 3 1 1 2 3 5 7 5 6 7 7 7 5
13 14 14 14 14 12 13 6 3 2 3 4 6 7 10 12 13 13 13 11 10 9 8 9 9 9 6 4 6 3 3 3 4 2 3 4 6 5 6 7 8 8 8
13 9 12 12 13 12 12 10 13 10 9 7 7 6 7 11 13 14 14 13 12 9 11 10 9 9 7 8 4 7 7 4 4 4 2 3 4 7 7 6 8 9 9
7 10 10 11 11 11 12 12 10 12 10 7 5 8 9 9 12 12 14 14 14 11 12 12 11 12 10 8 8 4 6 6 7 7 7 5 3 5 6 7 7 8 9
4 6 7 10 12 10 11 13 14 14 11 9 9 9 8 8 8 13 14 13 13 12 13 12 13 14 13 12 9 9 9 5 7 8 9 9 8 6 6 7 7 8 8
Wind_Direction
176 179 130 107 142 84 78 66 79 59 51 35 39 50 46 38 42 42 43 45 46 42 37 34 43 42 46 40 41 54 41 44 43 42 39 35 44 35 40 48 40 44 43
149 171 148 116 102 116 91 84 67 63 28 55 45 56 51 43 47 43 44 45 37 49 39 41 45 45 52 48 49 48 43 45 41 40 31 31 45 39 44 54 44 42 42
146 135 131 160 103 96 84 60 62 68 69 46 40 54 53 52 50 44 45 49 47 43 43 46 48 45 53 52 47 49 47 46 36 32 29 29 26 43 48 47 46 38 35
135 113 123 125 111 93 95 66 73 70 56 52 42 55 57 56 53 51 46 53 52 47 47 49 48 41 52 53 48 47 47 42 36 32 26 18 18 47 47 42 41 36 43
134 133 142 117 136 108 92 73 67 66 63 49 64 56 65 57 61 65 58 54 54 48 45 47 50 51 58 52 48 44 46 38 30 31 26 16 20 42 43 39 35 38 39
148 149 186 154 136 117 102 79 76 70 62 52 63 52 65 59 53 54 58 54 48 59 51 42 54 52 52 58 50 45 40 38 27 25 22 13 28 41 41 37 36 38 36
159 160 206 161 153 160 107 96 89 76 65 57 51 61 54 53 57 50 55 50 50 41 56 46 49 53 48 52 45 42 43 38 31 23 18 10 29 39 42 38 37 37 31
161 162 170 181 161 170 132 119 103 82 70 62 51 68 68 60 54 52 48 46 46 42 52 49 45 51 56 52 50 42 40 42 32 22 9 15 41 42 44 38 45 37 39
161 167 163 59 154 176 155 144 135 110 79 82 69 69 61 34 43 49 38 41 29 45 50 51 48 39 59 59 56 46 47 45 36 21 11 349 38 47 43 37 33 37 34
171 186 171 135 115 94 73 156 153 131 107 109 122 73 44 43 29 28 9 9 29 30 36 46 46 59 48 70 70 64 54 40 34 20 5 17 37 37 40 36 33 35 34
198 201 188 174 156 136 139 156 183 170 199 64 51 18 18 2 7 16 9 10 15 25 24 26 46 58 60 51 69 74 59 44 33 20 3 17 33 38 40 36 27 32 27
202 201 202 194 187 182 181 148 137 118 87 89 54 2 358 357 356 351 358 3 9 24 20 25 35 39 41 48 65 73 72 60 43 16 2 21 9 27 31 41 32 17 23
206 203 200 200 205 203 205 189 189 183 191 208 243 278 335 345 344 329 335 347 353 12 15 8 7 17 18 13 30 60 51 43 31 16 359 24 20 12 18 30 21 27 17
204 208 205 204 204 211 212 208 212 209 210 222 231 228 241 254 276 291 298 338 334 354 349 351 345 344 347 350 341 285 258 272 289 346 3 358 18 17 2 14 11 23 22
213 210 210 204 208 211 210 215 216 216 222 223 226 223 220 231 250 260 263 263 286 298 307 317 328 331 331 337 335 329 293 284 276 269 288 327 355 10 9 360 9 7 355
215 216 208 211 211 210 216 219 224 217 226 224 228 228 220 227 236 240 246 251 253 254 266 302 321 323 321 318 315 313 309 286 283 278 278 297 327 349 357 2 7 11 349
217 217 212 212 214 213 220 226 228 226 221 230 232 231 229 228 234 243 245 244 246 236 254 266 270 270 280 292 289 292 286 283 284 270 268 270 283 300 313 338 338 348 346
217 215 214 210 213 218 221 224 228 229 227 234 234 232 230 229 226 231 237 241 236 235 244 256 278 288 282 281 293 292 277 267 265 262 253 253 253 272 283 303 310 316 320
219 218 218 211 216 219 222 225 231 235 232 234 234 234 233 231 227 230 236 242 232 233 229 242 247 262 284 292 293 288 276 263 252 241 236 232 234 244 262 286 304 301 302
220 219 222 216 220 219 221 227 238 242 241 238 236 236 233 231 227 226 234 240 231 238 238 227 241 236 275 293 295 289 279 269 255 245 236 224 225 230 240 260 288 294 299
221 217 218 217 219 196 199 213 233 234 231 236 231 234 231 230 227 225 233 235 222 231 239 234 243 251 262 259 297 294 278 278 244 230 239 237 231 233 241 239 251 277 293
220 217 214 219 211 204 204 199 202 202 224 234 229 233 230 228 226 225 229 233 226 227 228 224 217 229 245 220 266 271 315 244 298 264 227 223 229 232 234 232 239 246 256
220 215 214 216 215 209 208 194 192 215 247 238 230 239 230 227 226 224 226 229 229 223 230 222 213 214 237 199 216 265 256 265 313 208 208 230 239 237 240 240 244 250 259
226 214 218 216 216 214 200 207 214 224 233 227 235 231 228 220 229 228 228 227 228 223 227 225 217 218 218 235 205 228 241 257 264 297 227 234 230 240 239 237 248 254 252
218 217 217 214 218 213 200 210 214 230 240 251 241 243 238 228 226 227 227 227 228 223 229 226 219 214 214 229 222 195 221 228 240 250 278 259 254 238 237 246 243 250 248
221 218 213 212 223 210 205 209 216 227 233 241 243 248 248 243 232 227 225 227 230 226 226 224 224 222 217 220 223 222 216 203 205 214 241 262 265 267 253 248 244 246 248